Terug naar catalogus

STARLINK-37031

ActiefCommunicatieVLEO
NORAD 68172·PAYLOAD·🇺🇸 United States

Gelanceerd Mar 14, 2026 vanaf Vandenberg Space Force Base

Loading…

Volgende Passages (komende 24 uur)

TLE

VersSource: CelesTrak SupGP

Epoch: Sep 15, 2026, 04:19 UTC

1 68172C 26050F   26258.18034722 -.00019596  00000+0 -57899-3 0  2587
2 68172  53.1566 102.8235 0001313  85.1615  74.8203 15.34398746    12

Volg STARLINK-37031 in realtime met AllMySat

Download on the App Store